This demonstration page uses our WeatherBlox Daily Observations layout. Learn more.

Left ArrowRight Arrow

Hourly Observations for March 24, 2018

Temp ( °F °C ) Dew Point ( °F °C ) Humidity (%) Winds ( mph kmh ) Pressure ( in mb ) Visibility ( mi km ) Precip ( " mm )
12:00 am 00:00 Cloudy with Strong Thunderstorms 45 7.2 42 5.6 90 90 NE 10 17 29.80 1009 2 2 0.05 1.27
12:08 am 00:08 Cloudy with Nearby Thunderstorms 44 6.7 42 5.6 93 93 E 14 22 29.80 1009 1 2 0.19 4.83
12:21 am 00:21 Cloudy with Strong Thunderstorms 44 6.7 42 5.6 93 93 ENE 10 17 29.80 1009 2 2 0.27 6.86
12:47 am 00:47 Cloudy with Nearby Thunderstorms 43 6.1 42 5.6 97 97 NE 9 15 29.83 1010 2 3 0.68 17.27
12:54 am 00:54 Cloudy with Rain 43 6.1 42 5.6 97 97 N 7 11 29.82 1010 3 4 0.70 17.78
1:04 am 01:04 Cloudy with Light Rain 43 6.1 42 5.6 97 97 NNE 10 17 29.83 1010 3 5 0.03 0.76
1:36 am 01:36 Cloudy with Mist and Fog 43 6.1 41 5 93 93 NE 13 20 29.83 1010 5 8 0.03 0.76
1:54 am 01:54 Cloudy with Mist and Fog 43 6.1 41 5 93 93 NNE 13 20 29.80 1009 5 8 0.03 0.76
2:31 am 02:31 Cloudy with Light Rain 42 5.6 41 5 96 96 NNE 12 19 29.83 1010 4 6 0.00 0.03
2:54 am 02:54 Cloudy with Mist and Fog 42 5.6 41 5 96 96 NNE 9 15 29.81 1010 4 6 0.00 0.03
3:54 am 03:54 Cloudy with Mist and Fog 42 5.6 40 4.4 92 92 N 12 19 29.82 1010 4 6 0.00 0.00
4:54 am 04:54 Cloudy with Mist and Fog 41 5 39 3.9 93 93 N 12 19 29.85 1011 6 10 0.00 0.00
5:54 am 05:54 Cloudy with Mist and Fog 41 5 39 3.9 93 93 N 14 22 29.86 1011 6 10 0.00 0.00
6:54 am 06:54 Cloudy 40 4.4 39 3.9 97 97 N 12 19 29.89 1012 7 11 0.00 0.00
7:54 am 07:54 Cloudy 40 4.4 38 3.3 93 93 N 14 22 29.93 1013 7 11 0.00 0.00
8:54 am 08:54 Cloudy 40 4.4 38 3.3 93 93 N 14 22 29.95 1014 8 13 0.00 0.00
9:54 am 09:54 Cloudy 39 3.9 37 2.8 93 93 N 16 26 29.96 1015 7 11 0.00 0.00
10:31 am 10:31 Cloudy with Mist and Fog 39 3.9 37 2.8 93 93 N 15 24 30.00 1016 5 8 0.00 0.00
10:54 am 10:54 Cloudy with Mist and Fog 38 3.3 36 2.2 93 93 N 16 26 30.00 1016 6 10 0.00 0.00
11:05 am 11:05 Cloudy with Mist and Fog 37 2.8 36 2.2 96 96 NNE 16 26 30.06 1018 4 6 0.00 0.00
11:54 am 11:54 Cloudy 37 2.8 34 1.1 89 89 N 18 30 30.04 1017 8 13 0.00 0.00
12:54 pm 12:54 Cloudy 37 2.8 34 1.1 89 89 N 17 28 30.06 1018 9 14 0.00 0.00
1:15 pm 13:15 Cloudy 36 2.2 33 0.6 89 89 NNE 17 28 30.12 1020 10 16 0.00 0.00
1:35 pm 13:35 Cloudy 37 2.8 33 0.6 86 86 N 17 28 30.12 1020 10 16 0.00 0.00
1:54 pm 13:54 Cloudy 37 2.8 32 0 82 82 NNE 16 26 30.07 1018 10 16 0.00 0.00
2:30 pm 14:30 Cloudy 37 2.8 31 -0.6 79 79 NNE 17 28 30.12 1020 10 16 0.00 0.00
2:54 pm 14:54 Cloudy 37 2.8 31 -0.6 79 79 NE 15 24 30.08 1019 10 16 0.00 0.00
3:54 pm 15:54 Cloudy 37 2.8 30 -1.1 76 76 N 14 22 30.09 1019 10 16 0.00 0.00
4:54 pm 16:54 Cloudy 36 2.2 30 -1.1 79 79 NNE 16 26 30.09 1019 10 16 0.00 0.00
5:23 pm 17:23 Cloudy 36 2.2 30 -1.1 79 79 NNE 13 20 30.15 1021 10 16 0.00 0.00
5:54 pm 17:54 Cloudy 36 2.2 30 -1.1 79 79 NNE 14 22 30.10 1019 10 16 0.00 0.00
6:54 pm 18:54 Cloudy 36 2.2 31 -0.6 82 82 NE 13 20 30.11 1020 10 16 0.00 0.00
7:33 pm 19:33 Cloudy 35 1.7 30 -1.1 82 82 ENE 12 19 30.15 1021 10 16 0.00 0.00
7:54 pm 19:54 Cloudy 35 1.7 30 -1.1 82 82 ENE 12 19 30.11 1020 10 16 0.00 0.00
8:54 pm 20:54 Cloudy 35 1.7 29 -1.7 78 78 E 13 20 30.13 1020 10 16 0.00 0.00
9:34 pm 21:34 Cloudy 35 1.7 29 -1.7 78 78 E 12 19 30.18 1022 10 16 0.00 0.00
9:54 pm 21:54 Cloudy 35 1.7 29 -1.7 78 78 E 13 20 30.15 1021 10 16 0.00 0.00
10:54 pm 22:54 Cloudy 34 1.1 29 -1.7 82 82 E 10 17 30.17 1022 10 16 0.00 0.00
11:54 pm 23:54 Cloudy 34 1.1 29 -1.7 82 82 E 9 15 30.19 1023 10 16 0.00 0.00

Powered by AerisWeather